Regional Weather Roundup
Issued by NWS

Home | Current Version | Previous Version | Graphics & Text | Print | Product List | Glossary On
Versions: 1 2 3 4 5 6 7 8 9 10 11 12 13 14 15 16 17 18 19 20 21 22 23 24 25 26 27 28 29 30 31 32 33 34 35 36 37 38 39 40 41 42 43 44 45 46 47 48 49 50
000
ASUS43 KBIS 011202
RWRND

NORTH DAKOTA REGIONAL WEATHER ROUNDUP
NATIONAL WEATHER SERVICE BISMARCK ND
700 AM CDT SAT AUG 01 2015

NOTE: "FAIR" INDICATES FEW OR NO CLOUDS BELOW 12,000 FEET WITH NO
SIGNIFICANT WEATHER AND/OR OBSTRUCTIONS TO VISIBILITY.


NDZ001>003-009>011-017-011300-
NORTHWEST NORTH DAKOTA

CITY           SKY/WX    TMP DP  RH WIND       PRES   REMARKS
WILLISTON      CLEAR     59  54  83 N6        29.94F
6HR MIN TEMP:  59; 6HR MAX TEMP:  67;

MINOT          MOCLDY    56  52  86 CALM      29.94F
MINOT AFB      PTCLDY    53  52  99 CALM      29.93F
$$

NDZ018>021-031>035-040>046-011300-
SOUTHWEST NORTH DAKOTA

CITY           SKY/WX    TMP DP  RH WIND       PRES   REMARKS
BISMARCK       CLEAR     57  55  93 E5        29.95F
6HR MIN TEMP:  56; 6HR MAX TEMP:  65; 6HR PCP:  0.01;

DICKINSON      CLEAR     53  48  83 E5        29.92S
GARRISON         N/A     60  54  80 NE6       29.94F
6HR MIN TEMP:  55; 6HR MAX TEMP:  60;

HETTINGER ARPT CLEAR     58  50  75 W3        29.96F
$$

NDZ004>008-012>016-024-026-027-054-011300-
NORTHEAST NORTH DAKOTA

CITY           SKY/WX    TMP DP  RH WIND       PRES   REMARKS
GRAND FORKS    PTCLDY    56  52  86 W3        29.94F
DEVILS LAKE    PTCLDY    61  52  72 CALM      29.96S
$$

NDZ022-023-025-028>030-036>039-047>053-011300-
SOUTHEAST NORTH DAKOTA

CITY           SKY/WX    TMP DP  RH WIND       PRES   REMARKS
FARGO          PTCLDY    59  54  83 CALM      29.96F
6HR MIN TEMP:  57; 6HR MAX TEMP:  62;

JAMESTOWN      PTCLDY    58  56  93 CALM      29.97F
$$




USA.gov is the U.S. government's official web portal to all federal, state and local government web resources and services.